Change the Weather History Date:

Saturday, March 30, 2013

  Actual Average (KTYR) Record (KTYR)
Temperature  
Mean Temperature 64 °F 60 °F  
Max Temperature 73 °F 70 °F 91 °F (1946)
Min Temperature 55 °F 50 °F 30 °F (2003)
Degree Days  
Heating Degree Days 1 6  
Month to date heating degree days 266  
Since 1 July heating degree days 2158  
Cooling Degree Days 0 1  
Month to date cooling degree days 18  
Year to date cooling degree days 30  
Growing Degree Days 14 (Base 50)    
Moisture  
Dew Point 58 °F    
Average Humidity 80    
Maximum Humidity 100    
Minimum Humidity 56    
Precipitation  
Precipitation 0.27 in 0.11 in 2.64 in (1989)
Month to date precipitation 4.01  
Year to date precipitation 10.88  
Snow  
Snow 0.00 in - - ()
Month to date snowfall  
Since 1 July snowfall  
Snow Depth -    
Sea Level Pressure  
Sea Level Pressure 30.05 in    
Wind  
Wind Speed 8 mph (SSW)    
Max Wind Speed 15 mph    
Max Gust Speed 23 mph    
Visibility 10 miles    
Events Rain , Thunderstorm    
T = Trace of Precipitation, MM = Missing Value Source: NWS Daily Summary

Daily Weather History Graph

Daily Weather History Graph

Search for Another Location

Airport or City:

Trip Planner

Search our weather history database for the weather conditions in past years. The results will help you decide how hot, cold, wet, or windy it might be!

Date:

Astronomy

Mar. 30, 2013 Rise Set
Actual Time 7:11 AM CDT 7:39 PM CDT
Civil Twilight 6:47 AM CDT 8:03 PM CDT
Nautical Twilight 6:18 AM CDT 8:32 PM CDT
Astronomical Twilight 5:49 AM CDT 9:01 PM CDT
Moon 11:32 PM CDT (3/30) 9:20 AM CDT (3/30)
Length of Visible Light 13h 16m
Length of Day
12h 27m
Waning Gibbous, 86% of the Moon is Illuminated
Mar 30
Waning Gibbous
Apr 2
Last Quarter
Apr 10
New
Apr 18
First Quarter
Apr 25
Full

Hourly Weather History & Observations

Time (CDT) Temp. Dew Point Humidity Pressure Visibility Wind Dir Wind Speed Gust Speed Precip Events Conditions
12:15 AM 63.9 °F 56.8 °F 78% 30.15 in 10.0 mi South 11.5 mph - N/A   Overcast
12:35 AM 63.5 °F 57.2 °F 80% 30.15 in 10.0 mi South 13.8 mph 18.4 mph N/A   Overcast
12:55 AM 63.0 °F 57.4 °F 82% 30.14 in 10.0 mi South 12.7 mph 18.4 mph N/A   Overcast
1:35 AM 62.4 °F 57.9 °F 85% 30.11 in 10.0 mi South 12.7 mph 19.6 mph N/A   Scattered Clouds
1:55 AM 61.9 °F 57.7 °F 86% 30.10 in 10.0 mi SSE 15.0 mph 20.7 mph N/A   Clear
2:15 AM 61.7 °F 58.1 °F 88% 30.10 in 10.0 mi South 11.5 mph 23.0 mph N/A   Clear
2:35 AM 61.2 °F 58.1 °F 90% 30.10 in 10.0 mi South 12.7 mph 20.7 mph N/A   Scattered Clouds
2:55 AM 60.8 °F 58.1 °F 91% 30.08 in 10.0 mi South 12.7 mph - N/A   Scattered Clouds
3:15 AM 60.8 °F 58.3 °F 91% 30.08 in 10.0 mi South 9.2 mph 16.1 mph N/A   Mostly Cloudy
3:35 AM 60.3 °F 58.3 °F 93% 30.04 in 10.0 mi SSE 12.7 mph - N/A   Mostly Cloudy
3:55 AM 60.3 °F 58.5 °F 94% 30.07 in 10.0 mi SSW 6.9 mph 16.1 mph N/A   Mostly Cloudy
4:15 AM 60.4 °F 58.5 °F 93% 30.10 in 10.0 mi WSW 4.6 mph - N/A   Overcast
4:35 AM 60.8 °F 58.8 °F 93% 30.10 in 10.0 mi SW 5.8 mph - N/A Rain Light Rain
4:55 AM 60.6 °F 59.0 °F 94% 30.10 in 10.0 mi SSW 5.8 mph - N/A Rain Light Rain
5:15 AM 60.3 °F 59.0 °F 96% 30.12 in 10.0 mi WSW 8.1 mph - N/A Rain Light Rain
5:35 AM 56.5 °F 53.6 °F 90% 30.14 in 3.0 mi West 6.9 mph 19.6 mph 0.17 in Rain , Thunderstorm Heavy Thunderstorms and Rain
5:55 AM 55.4 °F 54.1 °F 96% 30.13 in 7.0 mi WSW 4.6 mph - 0.20 in Rain , Thunderstorm Thunderstorms and Rain
6:15 AM 55.4 °F 54.5 °F 97% 30.11 in 5.0 mi SSW 3.5 mph - 0.03 in Rain , Thunderstorm Thunderstorms and Rain
6:35 AM 55.6 °F 55.0 °F 98% 30.07 in 7.0 mi SSW 4.6 mph 17.3 mph 0.07 in Rain , Thunderstorm Light Thunderstorms and Rain
6:55 AM 55.9 °F 55.8 °F 99% 30.07 in 10.0 mi SSE 3.5 mph - 0.07 in Rain , Thunderstorm Light Thunderstorms and Rain
7:15 AM 56.3 °F 56.3 °F 100% 30.08 in 10.0 mi Calm Calm - N/A   Light Drizzle
7:35 AM 56.3 °F 55.9 °F 99% 30.09 in 10.0 mi SW 4.6 mph - N/A   Clear
7:55 AM 56.3 °F 56.3 °F 100% 30.08 in 10.0 mi SSW 5.8 mph - N/A Thunderstorm Clear
8:15 AM 56.7 °F 56.5 °F 99% 30.09 in 10.0 mi SSW 4.6 mph - N/A   Clear
8:35 AM 58.3 °F 58.1 °F 99% 30.10 in 10.0 mi SW 4.6 mph - N/A   Clear
8:55 AM 59.5 °F 59.0 °F 98% 30.10 in 10.0 mi SSW 3.5 mph - N/A   Mostly Cloudy
9:15 AM 60.1 °F 59.4 °F 97% 30.10 in 10.0 mi SW 3.5 mph - N/A   Overcast
9:35 AM 61.2 °F 60.3 °F 97% 30.10 in 10.0 mi SSW 4.6 mph - N/A   Overcast
9:55 AM 61.7 °F 60.8 °F 97% 30.10 in 7.0 mi South 4.6 mph - N/A   Overcast
10:15 AM 63.5 °F 61.7 °F 94% 30.10 in 10.0 mi SSW 6.9 mph - N/A   Overcast
10:35 AM 63.7 °F 61.5 °F 93% 30.10 in 10.0 mi SSW 6.9 mph - N/A   Overcast
10:55 AM 63.9 °F 61.5 °F 92% 30.11 in 10.0 mi SSW 4.6 mph - N/A   Overcast
11:15 AM 64.8 °F 61.7 °F 90% 30.11 in 10.0 mi SSW 6.9 mph - N/A   Overcast
11:35 AM 66.7 °F 61.5 °F 83% 30.10 in 10.0 mi SSW 5.8 mph - N/A   Mostly Cloudy
11:55 AM 67.3 °F 61.5 °F 82% 30.10 in 10.0 mi SSW 4.6 mph - N/A   Mostly Cloudy
12:15 PM 68.0 °F 60.3 °F 76% 30.09 in 10.0 mi SSW 5.8 mph - N/A   Mostly Cloudy
12:35 PM 69.4 °F 59.2 °F 70% 30.08 in 10.0 mi SW 9.2 mph 16.1 mph N/A   Overcast
12:55 PM 70.0 °F 58.8 °F 68% 30.07 in 10.0 mi SSW 12.7 mph 16.1 mph N/A   Overcast
1:15 PM 71.8 °F 58.8 °F 64% 30.06 in 10.0 mi SSW 10.4 mph 19.6 mph N/A   Mostly Cloudy
1:35 PM 70.7 °F 59.0 °F 66% 30.06 in 10.0 mi SSW 5.8 mph - N/A   Overcast
1:55 PM 71.1 °F 58.8 °F 65% 30.05 in 10.0 mi SSW 8.1 mph - N/A Thunderstorm Mostly Cloudy
2:15 PM 72.1 °F 58.5 °F 62% 30.04 in 10.0 mi SSW 8.1 mph - N/A   Overcast
2:35 PM 72.5 °F 57.6 °F 59% 30.03 in 10.0 mi South 10.4 mph - N/A   Overcast
2:55 PM 72.5 °F 57.6 °F 59% 30.02 in 10.0 mi SSW 5.8 mph - N/A   Overcast
3:15 PM 72.7 °F 57.7 °F 59% 30.01 in 10.0 mi SSW 4.6 mph - N/A   Overcast
3:35 PM 73.2 °F 57.6 °F 58% 30.00 in 10.0 mi SSW 8.1 mph - N/A   Overcast
3:55 PM 73.6 °F 57.0 °F 56% 29.99 in 10.0 mi SSW 6.9 mph 17.3 mph N/A   Overcast
4:15 PM 73.2 °F 57.4 °F 57% 29.99 in 10.0 mi South 8.1 mph - N/A   Overcast
4:35 PM 73.4 °F 57.4 °F 57% 29.99 in 10.0 mi SSW 9.2 mph - N/A   Overcast
4:55 PM 73.9 °F 57.2 °F 56% 29.98 in 10.0 mi SSW 9.2 mph - N/A   Overcast
5:15 PM 73.2 °F 57.4 °F 57% 29.98 in 10.0 mi South 8.1 mph - N/A   Overcast
5:35 PM 72.7 °F 57.6 °F 59% 29.98 in 10.0 mi SSW 5.8 mph - N/A   Overcast
5:55 PM 72.7 °F 57.4 °F 59% 29.97 in 10.0 mi South 8.1 mph - N/A   Overcast
6:15 PM 72.5 °F 57.4 °F 59% 29.98 in 10.0 mi South 4.6 mph - N/A   Overcast
6:35 PM 71.8 °F 57.4 °F 60% 29.98 in 10.0 mi South 5.8 mph - N/A   Overcast
6:55 PM 71.2 °F 57.4 °F 61% 29.97 in 10.0 mi South 4.6 mph - N/A   Overcast
7:15 PM 70.7 °F 58.1 °F 64% 29.97 in 10.0 mi South 4.6 mph - N/A   Overcast
7:35 PM 69.8 °F 59.0 °F 68% 29.97 in 10.0 mi South 3.5 mph - N/A   Overcast
7:55 PM 68.9 °F 59.2 °F 71% 29.96 in 10.0 mi Calm Calm - N/A   Overcast
8:15 PM 68.2 °F 59.5 °F 74% 29.96 in 10.0 mi SSE 4.6 mph - N/A   Overcast
8:35 PM 68.2 °F 59.9 °F 75% 29.97 in 10.0 mi SSE 4.6 mph - N/A   Overcast
8:55 PM 68.2 °F 59.9 °F 75% 29.97 in 10.0 mi South 5.8 mph - N/A   Overcast
9:15 PM 68.0 °F 59.5 °F 74% 29.97 in 10.0 mi SSE 6.9 mph - N/A   Overcast
9:35 PM 67.3 °F 59.4 °F 76% 29.97 in 10.0 mi South 6.9 mph - N/A   Overcast
9:55 PM 66.7 °F 59.4 °F 77% 29.98 in 10.0 mi South 5.8 mph - N/A   Mostly Cloudy
10:35 PM 65.7 °F 59.7 °F 81% 29.98 in 10.0 mi SSE 6.9 mph - N/A   Clear
10:55 PM 65.3 °F 59.9 °F 83% 29.98 in 10.0 mi SSE 8.1 mph - N/A   Clear
11:15 PM 65.3 °F 60.1 °F 83% 29.99 in 10.0 mi South 8.1 mph - N/A   Scattered Clouds
11:35 PM 64.4 °F 60.1 °F 86% 29.98 in 10.0 mi SSE 9.2 mph - N/A   Scattered Clouds
11:55 PM 64.0 °F 60.3 °F 87% 29.97 in 10.0 mi South 10.4 mph - N/A   Clear